Flag for Taiwan Weather past 2 weeks in Taipei, Taiwan

Now
59 °F

Light rain. Broken clouds.


Feels Like: 60 °F
Forecast: 51 / 56 °F
Wind: 3 mph from North

Location: Sungshan / Taipei

Current Time: Dec 21, 2014 at 12:24:49 PM

Latest Report: Dec 21, 2014 at 12:00 PM


Visibility: 4 mi

Pressure: 30.24 "Hg

Humidity: 72%

Dew point: 50 °F

Location of TaipeiLocation

Historic Weather in Taipei — Graph

°F

Taipei temperature yesterday

Maximum temperature yesterday: 63 °F (at 1:00 PM)
Minimum temperature yesterday: 59 °F (at 12:00 AM)
Average temperature yesterday: 60 °F

Past Weeks' High & Low Weather Summary

 TemperatureHumidityPressure
High77 °F (Dec 7, 12:00 PM)94% (Dec 9, 8:30 PM)30.48 "Hg (Dec 9, 8:30 PM)
Low52 °F (Dec 17, 6:30 AM)36% (Dec 7, 12:00 PM)30.01 "Hg (Dec 10, 1:30 PM)
Average62 °F67%30.23 "Hg
* Reported Dec 6 11:00 AM — Dec 21 11:30 AM, Taipei, Weather by CustomWeather, © 2014

Note: Actual official high and low records may vary slightly from our data, if they occured in-between our weather recording intervals... More about our weather records

Advertising

Taipei weather history for previous 24 hours

 ConditionsComfort  
Time TempWeatherWind HumidityBarometerVisibility
11:30 AM
Dec 21
59 °FLight rain. Broken clouds.6 mph72%30.24 "HgN/A
10:56 AM61 °FLight rain. Broken clouds.9 mph68%30.24 "HgN/A
10:30 AM61 °FPartly sunny.10 mph68%30.24 "HgN/A
10:00 AM63 °FPartly sunny.12 mph59%30.24 "HgN/A
9:30 AM63 °FPartly sunny.9 mph59%30.24 "HgN/A
9:00 AM63 °FPartly sunny.12 mph59%30.24 "HgN/A
8:30 AM63 °FBroken clouds.14 mph59%30.21 "HgN/A
8:00 AM63 °FPartly sunny.14 mph59%30.21 "HgN/A
7:30 AM61 °FBroken clouds.13 mph63%30.21 "HgN/A
7:00 AM61 °FPartly sunny.13 mph63%30.21 "HgN/A
6:30 AM61 °FPassing clouds.14 mph59%30.18 "HgN/A
6:00 AM61 °FPassing clouds.13 mph63%30.18 "HgN/A
5:00 AM61 °FPartly cloudy.16 mph63%30.18 "HgN/A
4:00 AM63 °FPassing clouds.14 mph59%30.15 "HgN/A
3:00 AM63 °FPassing clouds.15 mph56%30.15 "HgN/A
2:00 AM63 °FPassing clouds.16 mph56%30.18 "HgN/A
1:00 AM63 °FPassing clouds.15 mph56%30.18 "HgN/A
12:00 AM61 °FPassing clouds.14 mph59%30.18 "HgN/A
11:30 PM
Dec 20
61 °FPassing clouds.14 mph59%30.21 "HgN/A
11:00 PM61 °FPartly cloudy.14 mph59%30.21 "HgN/A
10:30 PM61 °FPassing clouds.15 mph59%30.21 "HgN/A
10:00 PM61 °FPassing clouds.15 mph59%30.21 "HgN/A
9:30 PM61 °FPassing clouds.14 mph59%30.21 "HgN/A
9:00 PM59 °FPassing clouds.12 mph63%30.21 "HgN/A
8:30 PM61 °FPassing clouds.12 mph59%30.21 "HgN/A
8:00 PM61 °FPassing clouds.13 mph63%30.21 "HgN/A
7:30 PM59 °FPassing clouds.13 mph68%30.21 "HgN/A
7:00 PM61 °FPassing clouds.13 mph59%30.21 "HgN/A
6:30 PM59 °FPartly cloudy.10 mph63%30.18 "HgN/A
6:00 PM61 °FPassing clouds.12 mph59%30.18 "HgN/A
5:30 PM59 °FPassing clouds.15 mph63%30.18 "HgN/A
5:00 PM61 °FPartly sunny.13 mph59%30.18 "HgN/A
4:30 PM61 °FScattered clouds.14 mph59%30.15 "HgN/A
4:00 PM61 °FBroken clouds.14 mph59%30.15 "HgN/A
3:30 PM63 °FScattered clouds.15 mph56%30.15 "HgN/A
3:00 PM63 °FScattered clouds.13 mph52%30.15 "HgN/A
2:30 PM63 °FBroken clouds.10 mph56%30.15 "HgN/A
2:00 PM63 °FBroken clouds.12 mph56%30.15 "HgN/A
1:30 PM63 °FBroken clouds.13 mph56%30.18 "HgN/A
1:00 PM63 °FPartly sunny.12 mph52%30.18 "HgN/A
12:30 PM61 °FPartly sunny.9 mph59%30.18 "HgN/A
12:00 PM61 °FPartly sunny.10 mph55%30.21 "HgN/A
Weather by CustomWeather, © 2014

See weather overviewHow to use our weather pages